IU7TPK-1 Weather Reports


time (UTC)temp
C
wind
direction
speed
KPH
gust
KPH
rain 1hr
cm
rain 24hr
cm
rain mn
cm
humidity
%
barometer
mb
20260503230008 13 51 3.2 4.8 0.00 0.00 0.00 66 1017.0
20260503225005 13 51 0.0 4.8 0.00 0.00 0.00 66 1017.0
20260503224508 13 50 3.2 6.4 0.00 0.00 0.00 65 1017.0
20260503223506 13 48 4.8 6.4 0.00 0.00 0.00 65 1017.0
20260503222505 13 33 4.8 6.4 0.00 0.00 0.00 63 1017.0
20260503222006 14 324 3.2 4.8 0.00 0.00 0.00 63 1017.0
20260503221508 14 273 0.0 4.8 0.00 0.00 0.00 62 1017.0
20260503221006 14 273 0.0 4.8 0.00 0.00 0.00 62 1017.0
20260503220505 15 273 0.0 4.8 0.00 0.00 0.00 61 1017.0
20260503220008 15 272 0.0 4.8 0.00 0.00 0.00 61 1017.0
20260503215505 15 272 3.2 4.8 0.00 0.00 0.00 60 1017.0
20260503215006 15 271 0.0 3.2 0.00 0.00 0.00 60 1017.0
20260503213008 16 271 0.0 3.2 0.00 0.00 0.00 60 1017.0
20260503212005 16 271 0.0 3.2 0.00 0.00 0.00 60 1017.0
20260503211509 16 271 0.0 3.2 0.00 0.00 0.00 60 1017.0
20260503211006 16 271 0.0 4.8 0.00 0.00 0.00 60 1017.0
20260503210506 16 271 0.0 4.8 0.00 0.00 0.00 60 1017.0
20260503210009 16 271 0.0 3.2 0.00 0.00 0.00 60 1017.0
20260503205506 16 271 0.0 3.2 0.00 0.00 0.00 60 1017.0
20260503205006 16 271 0.0 4.8 0.00 0.00 0.00 60 1017.0
20260503204005 16 271 0.0 3.2 0.00 0.00 0.00 60 1017.0
20260503203506 16 271 0.0 3.2 0.00 0.00 0.00 60 1017.0
20260503202506 16 271 0.0 3.2 0.00 0.00 0.00 59 1017.0
20260503202006 16 271 0.0 3.2 0.00 0.00 0.00 59 1017.0
20260503201508 16 271 0.0 3.2 0.00 0.00 0.00 58 1017.0
20260503201006 16 271 0.0 3.2 0.00 0.00 0.00 59 1017.0
20260503200505 16 271 0.0 3.2 0.00 0.00 0.00 59 1017.0
20260503200008 16 271 0.0 3.2 0.00 0.00 0.00 59 1017.0
20260503195506 16 0 0.0 0.0 0.00 0.00 0.00 59 1017.0
20260503195006 16 0 0.0 0.0 0.00 0.00 0.00 58 1017.0
20260503194508 16 271 0.0 4.8 0.00 0.00 0.00 57 1017.0
20260503194006 16 271 0.0 4.8 0.00 0.00 0.00 56 1017.0
20260503193506 17 271 0.0 4.8 0.00 0.00 0.00 54 1016.0
20260503193008 17 264 0.0 4.8 0.00 0.00 0.00 53 1016.0
20260503192006 17 232 0.0 3.2 0.00 0.00 0.00 51 1016.0
20260503191508 17 233 0.0 3.2 0.00 0.00 0.00 47 1016.0
20260503191006 17 243 0.0 4.8 0.00 0.00 0.00 45 1016.0
20260503190505 17 246 0.0 4.8 0.00 0.00 0.00 44 1016.0
20260503190008 17 216 0.0 4.8 0.00 0.00 0.00 44 1016.0
20260503185506 17 178 0.0 6.4 0.00 0.00 0.00 44 1016.0
20260503185006 17 50 0.0 6.4 0.00 0.00 0.00 44 1016.0
20260503184508 17 39 0.0 6.4 0.00 0.00 0.00 44 1016.0
20260503184006 17 39 3.2 6.4 0.00 0.00 0.00 44 1016.0
20260503183506 18 30 3.2 4.8 0.00 0.00 0.00 43 1016.0
20260503183008 18 23 0.0 6.4 0.00 0.00 0.00 43 1016.0
20260503182505 18 23 0.0 6.4 0.00 0.00 0.00 42 1016.0
20260503182006 18 289 0.0 3.2 0.00 0.00 0.00 41 1016.0
20260503181508 18 289 0.0 3.2 0.00 0.00 0.00 40 1016.0
20260503180506 19 289 0.0 3.2 0.00 0.00 0.00 38 1016.0
20260503180008 19 289 0.0 3.2 0.00 0.00 0.00 38 1016.0
20260503175505 19 289 0.0 3.2 0.00 0.00 0.00 38 1016.0
20260503175006 19 0 0.0 0.0 0.00 0.00 0.00 38 1015.0
20260503174508 20 289 0.0 3.2 0.00 0.00 0.00 38 1015.0
20260503174005 20 289 0.0 3.2 0.00 0.00 0.00 38 1015.0
20260503173506 20 289 0.0 3.2 0.00 0.00 0.00 37 1015.0
20260503173008 20 290 0.0 4.8 0.00 0.00 0.00 37 1015.0
20260503172505 20 283 0.0 4.8 0.00 0.00 0.00 36 1015.0
20260503172006 20 278 3.2 4.8 0.00 0.00 0.00 36 1015.0
20260503171508 20 282 0.0 4.8 0.00 0.00 0.00 36 1015.0
20260503171006 20 292 0.0 4.8 0.00 0.00 0.00 36 1015.0
20260503170506 20 300 0.0 6.4 0.00 0.00 0.00 36 1015.0
20260503151005 23 320 4.8 11.3 0.00 0.00 0.00 34 1015.0
20260503131005 23 8 6.4 9.7 0.00 0.00 0.00 37 1016.0
20260503110506 22 18 8.0 12.9 0.00 0.00 0.00 37 1016.0
20260503090506 21 302 4.8 9.7 0.00 0.00 0.00 38 1016.0
20260503081005 20 297 6.4 9.7 0.00 0.00 0.00 44 1017.0
20260503080506 20 301 6.4 9.7 0.00 0.00 0.00 44 1017.0
20260503072505 18 297 6.4 12.9 0.00 0.00 0.00 45 1017.0
20260503071508 18 297 8.0 9.7 0.00 0.00 0.00 45 1016.0
20260503071006 18 298 8.0 12.9 0.00 0.00 0.00 45 1016.0
20260503070506 18 294 8.0 12.9 0.00 0.00 0.00 46 1017.0
20260503055006 16 303 6.4 14.5 0.00 0.00 0.00 46 1017.0
20260503054508 16 303 11.3 14.5 0.00 0.00 0.00 46 1017.0
20260503054006 16 307 6.4 11.3 0.00 0.00 0.00 46 1017.0
20260503053008 16 304 6.4 12.9 0.00 0.00 0.00 46 1017.0
20260503052506 16 308 4.8 11.3 0.00 0.00 0.00 46 1017.0
20260503052005 15 306 6.4 11.3 0.00 0.00 0.00 46 1017.0
20260503051005 15 307 6.4 9.7 0.00 0.00 0.00 46 1017.0
20260503050506 15 299 6.4 11.3 0.00 0.00 0.00 46 1017.0
20260503050008 15 303 6.4 11.3 0.00 0.00 0.00 46 1017.0
20260503045505 15 308 6.4 12.9 0.00 0.00 0.00 46 1017.0
20260503045005 15 306 8.0 12.9 0.00 0.00 0.00 46 1017.0
20260503044509 15 308 4.8 12.9 0.00 0.00 0.00 47 1017.0
20260503044005 15 314 4.8 9.7 0.00 0.00 0.00 47 1017.0
20260503043505 14 310 6.4 9.7 0.00 0.00 0.00 47 1017.0
20260503043008 14 306 6.4 12.9 0.00 0.00 0.00 47 1017.0
20260503042005 14 304 4.8 12.9 0.00 0.00 0.00 47 1016.0
20260503041508 14 308 6.4 9.7 0.00 0.00 0.00 47 1016.0
20260503041006 14 311 8.0 9.7 0.00 0.00 0.00 47 1016.0
20260503040008 14 307 8.0 12.9 0.00 0.00 0.00 47 1016.0
20260503034005 14 317 4.8 9.7 0.00 0.00 0.00 47 1016.0
20260503033506 14 313 4.8 9.7 0.00 0.00 0.00 47 1016.0
20260503033008 14 310 6.4 9.7 0.00 0.00 0.00 47 1016.0
20260503032505 14 312 6.4 9.7 0.00 0.00 0.00 47 1016.0
20260503031508 14 326 8.0 11.3 0.00 0.00 0.00 47 1016.0
20260503031006 14 317 6.4 11.3 0.00 0.00 0.00 47 1016.0
20260503025505 14 311 4.8 9.7 0.00 0.00 0.00 47 1016.0
20260503025005 14 309 4.8 9.7 0.00 0.00 0.00 47 1017.0
20260503024508 14 314 6.4 12.9 0.00 0.00 0.00 47 1017.0
20260503023506 14 309 4.8 11.3 0.00 0.00 0.00 47 1016.0
20260503023008 14 316 6.4 9.7 0.00 0.00 0.00 47 1016.0
20260503022506 14 320 6.4 9.7 0.00 0.00 0.00 47 1016.0
20260503021508 14 330 6.4 9.7 0.00 0.00 0.00 47 1017.0
20260503021005 13 326 6.4 9.7 0.00 0.00 0.00 47 1017.0
20260503020505 14 318 6.4 9.7 0.00 0.00 0.00 47 1017.0
20260503020008 13 315 6.4 9.7 0.00 0.00 0.00 47 1017.0
20260503015505 13 318 4.8 9.7 0.00 0.00 0.00 47 1017.0
20260503015006 13 325 6.4 12.9 0.00 0.00 0.00 47 1017.0
20260503014508 13 321 4.8 12.9 0.00 0.00 0.00 47 1017.0
20260503014006 13 312 4.8 9.7 0.00 0.00 0.00 47 1017.0
20260503013505 13 314 6.4 9.7 0.00 0.00 0.00 47 1017.0
20260503013008 13 314 4.8 9.7 0.00 0.00 0.00 46 1017.0
20260503012505 13 311 4.8 9.7 0.00 0.00 0.00 46 1017.0
20260503011508 13 311 4.8 9.7 0.00 0.00 0.00 46 1017.0
20260503011006 13 310 4.8 6.4 0.00 0.00 0.00 46 1017.0
20260503005005 14 302 4.8 9.7 0.00 0.00 0.00 46 1017.0
20260503004005 13 296 6.4 9.7 0.00 0.00 0.00 47 1017.0
20260503003505 14 299 6.4 9.7 0.00 0.00 0.00 47 1017.0
20260503003007 14 298 6.4 12.9 0.00 0.00 0.00 47 1017.0
20260503002505 13 296 6.4 12.9 0.00 0.00 0.00 47 1017.0
20260503002005 13 300 6.4 12.9 0.00 0.00 0.00 47 1017.0
20260503001508 13 296 6.4 12.9 0.00 0.00 0.00 47 1017.0
20260503001006 13 296 8.0 12.9 0.00 0.00 0.00 48 1017.0
20260503000505 13 298 6.4 11.3 0.00 0.00 0.00 48 1018.0
20260503000008 13 295 6.4 9.7 0.00 0.00 0.00 48 1018.0
20260502235506 13 297 6.4 9.7 0.00 0.00 0.00 48 1018.0
20260502235005 13 301 4.8 9.7 0.00 0.00 0.00 48 1018.0
20260502234508 13 303 4.8 9.7 0.00 0.00 0.00 48 1018.0
20260502234005 13 300 6.4 9.7 0.00 0.00 0.00 49 1018.0
20260502233506 14 300 6.4 9.7 0.00 0.00 0.00 49 1018.0
20260502233008 13 295 6.4 9.7 0.00 0.00 0.00 49 1018.0
20260502232505 14 294 6.4 9.7 0.00 0.00 0.00 49 1018.0
20260502232006 14 306 3.2 6.4 0.00 0.00 0.00 50 1018.0
20260502231508 14 308 4.8 9.7 0.00 0.00 0.00 50 1018.0
20260502231005 13 305 4.8 9.7 0.00 0.00 0.00 50 1018.0
20260502230506 13 307 4.8 8.0 0.00 0.00 0.00 51 1019.0